Jackpot Winner Ceme

Jackpot dilihat dari gabungan kartu pemain dengan kartu bandar. Bandar harus membeli jackpot sebanyak jumlah player yang sedang duduk. Sebagai contoh bila terdapat 3 pemain duduk bermain, dan bandar memutuskan untuk membeli jackpot Rp 1.000, maka pada periode tersebut bandar akan membeli jackpot sebanyak 3xRp1.000 = Rp3.000.

Jackpot bukanlah suatu keharusan untuk dibeli, namun kami memberikan suatu fitur tambahan untuk member tercinta dari www.nagapoker.com.

Terdapat tiga pilihan harga jackpot yang bisa anda beli yaitu :100,500 dan 1000 rupiah.

Hadiah dari Multi jackpot system www.nagapoker.com

  1. Murni Kecil x 50 harga jackpot yang anda beli.
      (contoH:anda membeli 1000 maka:1000 X 50 = 50.000)
  2. Murni Besar x 50 harga jackpot yang anda beli
      (contoH:anda membeli 1000 maka:1000 X 50 = 50.000)
  3. BALAK x 200 harga jackpot yang anda beli
      (contoH:anda membeli 1000 maka:1000 X 200 = 200.000)
  4. ENAM DEWA x 6666 harga jackpot yang anda beli
      (contoH:anda membeli 1000 maka:1000 X 6666 = 6.666.000)

Demikian adalah penjelasan dari Multi Jackpot www.nagapoker.com terima kasih dan selamat bermain salam hoki dari kami


Jackpot Winner

TOP ENAM DEWA
No.TanggalNamaPriceWin
128/03 08:26ARPANDOmurni enam6,666,000
228/03 07:18LABOK888murni enam3,333,000
328/03 07:18RICONSmurni enam6,666,000
428/03 06:57A2SUTARmurni enam666,600
528/03 06:57MXKING8888murni enam666,600
TOP BALAK
No.TanggalNamaPriceWin
128/03 09:14ROEJOE99balak200,000
228/03 09:14FATIS12balak200,000
328/03 09:14MEY_DY99balak200,000
428/03 09:10PIPATE95balak200,000
528/03 09:09ZALTAbalak100,000
LATEST JACKPOT
No.TanggalNamaPriceWin
128/03 09:15FNY0H7SDZKmurni besar50,000
228/03 09:15IDK881199murni kecil50,000
328/03 09:14DWBTARIE49murni kecil25,000
428/03 09:14ROEJOE99balak200,000
528/03 09:14FATIS12balak200,000
628/03 09:14MEY_DY99balak200,000
728/03 09:13KUPUTEMPEOmurni kecil25,000
828/03 09:13COOLFLUSHmurni besar5,000
928/03 09:13D7H7BPWHDAmurni besar50,000
1028/03 09:13PADRA007murni besar50,000
1128/03 09:13BERANDAL00murni kecil25,000
1228/03 09:13LUMINTU13murni kecil50,000
1328/03 09:13ANJEN1234murni besar50,000
1428/03 09:12ROEJOE99murni besar50,000
1528/03 09:11HAANS212murni kecil50,000
1628/03 09:11DULLOHSPRFmurni kecil50,000
1728/03 09:11HAANS212murni kecil50,000
1828/03 09:11HONGSUI_HKmurni kecil50,000
1928/03 09:10FATIS12murni besar50,000
2028/03 09:10JEFRYBONNYmurni besar25,000
2128/03 09:10AJI4545murni besar50,000
2228/03 09:10PIPATE95balak200,000
2328/03 09:09BETA1994murni besar25,000
2428/03 09:09ZALTAbalak100,000
2528/03 09:09SHANIA00murni besar5,000
2628/03 09:09LABOK888murni kecil50,000
2728/03 09:09TH0MPH3Lbalak200,000
2828/03 09:08GONYICIL99murni kecil50,000
2928/03 09:08ANGLE999murni kecil5,000
3028/03 09:08BANGETZ79balak200,000
3128/03 09:08MONO28murni besar50,000
3228/03 09:08BAKKImurni besar50,000
3328/03 09:08WIN9966murni besar50,000
3428/03 09:08BERANDAL00murni kecil50,000
3528/03 09:08TN3murni kecil50,000
3628/03 09:07V5NMWJGXAImurni kecil50,000
3728/03 09:07APIP78balak20,000
3828/03 09:07SILAOPANmurni besar25,000
3928/03 09:07LINA2404murni kecil5,000
4028/03 09:06BONENG35murni kecil50,000
4128/03 09:06AZYZmurni kecil5,000
4228/03 09:06TH0MPH3Lmurni besar50,000
4328/03 09:06GEJUJUREmurni besar25,000
4428/03 09:06GERANNAmurni besar25,000
4528/03 09:06GERANNAmurni besar25,000
4628/03 09:06SOONGOOOmurni kecil50,000
4728/03 09:06ANGKUP03murni kecil25,000
4828/03 09:06AXCLJAWARAbalak200,000
4928/03 09:06PUJA69murni kecil50,000
5028/03 09:06BEBYJOULmurni kecil50,000
Dewa.FM